www.pogodaiklimat.ru

Погода и климат >> Архив погоды >> Беларусь >> Ганцевичи


ПОГОДА в Ганцевичах

  • Прогноз погоды в Ганцевичах
  • Монитор погоды в Ганцевичах
  • Климат города

АРХИВ ПОГОДЫ в Ганцевичах

Время (UTC), дата Ветер
(напр.,м/с)
 
Видим.   Явления Облачность Т
(С)
Тd
(С)
f
(%)
Тe
(С)
Тes
(С)
Комфортность P
(гПа)
Po
(гПа)
Тmin
(С)
Tmax
(С)
R
(мм)
R24
(мм)
S
(см)
06 13.09 С 2 35 км 6/0 2000 м
[Ac trans]
+17.3 +14.5 84 +18 +19 1018.5 999.8 +13.9
09 13.09 СВ 3 29 км 8/0 2000 м
[Ac trans]
+20.9 +13.6 63 +24 +27 комфорт 1019.0 1000.5
12 13.09 СВ 2 35 км 8/0 2000 м
[Ac trans]
+22.1 +12.8 56 +25 +28 комфорт 1018.7 1000.3
15 13.09 С 2 18 км 8/0 2000 м
[Ac trans Ci fib]
+20.8 +12.9 61 +24 +24 комфорт 1018.2 999.7
18 13.09 штиль 0 24 км 6/0 2000 м
[Ac trans]
+15.9 +11.7 76 +16 +16 1018.4 999.6 +23.0
06 14.09 С 1 24 км дымка 9/0 2000 м
[Ac trans]
+12.3 +9.8 85 +12 +13 1018.8 999.8 +9.5
09 14.09 С 3 23 км 9/3 600 м
[Cb calv Ac trans]
+18.8 +11.1 61 +20 +22 1018.9 1000.2
12 14.09 С 2 30 км в посл. час ливневой дождь 9/4 600 м
[Cb calv Ac trans]
+19.3 +12.3 64 +21 +23 комфорт 1018.1 999.5
15 14.09 С 3 15 км 9/0 2000 м
[Ac trans]
+17.4 +10.9 66 +17 +18 1018.5 999.7
18 14.09 С 3 35 км в посл. час ливневой дождь 9/4 600 м
[Cb calv Ac trans]
+14.8 +10.0 73 +14 +14 1019.7 1000.8 +20.0 0.0
06 15.09 ЮЗ 3 3500 м гроза, ливневой дождь 10/10 330 м
[Cb cap]
+12.5 +12.0 97 +11 +11 1018.2 999.2 +12.2 14
09 15.09 С 1 35 км в посл. час ливневой дождь {гроза} 10/10 450 м
[Cb cap]
+13.1 +12.2 94 +13 +13 1017.2 998.2
12 15.09 С 2 18 км в посл. час ливневой дождь {гроза} 10/10 420 м
[Cb cap]
+12.9 +12.2 96 +12 +12 1017.0 998.0
15 15.09 СЗ 2 35 км дымка 9/9 480 м
[Cb calv]
+14.5 +12.8 90 +14 +14 1017.1 998.2
18 15.09 СЗ 1 30 км дымка 9/9 600 м
[Sc]
+14.4 +13.1 92 +15 +15 1018.4 999.5 +14.5 20
06 16.09 СЗ 3 21 км дымка 4/0 2000 м
[Ac trans]
+12.5 +11.2 92 +11 +12 1020.3 1001.3 +11.6 0.1
09 16.09 СЗ 3 30 км 3/3 1000 м
[Cu med, cong]
+15.8 +9.7 67 +15 +20 1021.5 1002.6
12 16.09 СЗ 3 35 км 4/4 600 м
[Cb calv]
+16.5 +7.0 53 +16 +20 1021.9 1003.0
15 16.09 СЗ 3 35 км 1/1 1000 м
[Sc diur, vesp]
+17.7 +4.0 40 +18 +18 1022.0 1003.2
18 16.09 З 1 17 км 1/0
[Ci fib]
+10.6 +8.0 84 +10 +10 1023.6 1004.3 +18.7
06 17.09 штиль 0 23 км дымка 9/0
[Ci fib]
+9.2 +7.1 87 +8 +10 1025.2 1005.8 +3.1
09 17.09 ЮЗ 3 35 км 1/0
[Ci fib]
+18.1 +8.2 52 +18 +24 1024.2 1005.4
12 17.09 ЮЗ 3 35 км 8/6 1080 м
[Cu med, cong Ci fib]
+20.0 +7.8 45 +21 +23 комфорт 1022.8 1004.2
15 17.09 ЮЗ 3 35 км 4/1 1000 м
[Cu hum Ci fib]
+19.4 +8.5 49 +20 +21 1021.6 1002.9
18 17.09 Ю 1 35 км 4/0
[Ci fib]
+12.9 +10.2 84 +13 +13 1022.1 1003.0 +20.4
06 18.09 ЮЗ 2 30 км 9/0
[Ci fib]
+13.0 +9.9 81 +12 +14 1022.3 1003.2 +10.4
09 18.09 ЮЗ 3 35 км 9/0
[Ci fib]
+19.8 +11.4 58 +22 +26 комфорт 1022.1 1003.5
12 18.09 ЮЗ 3 30 км 9/0
[Ci fib]
+23.0 +11.9 50 +26 +30 жарко 1021.3 1002.8
15 18.09 ЮЗ 2 35 км 9/0
[Ci fib]
+22.7 +11.0 48 +25 +25 комфорт 1020.1 1001.7
18 18.09 Ю 1 16 км дымка 3/0
[Ci fib]
+13.4 +11.9 91 +14 +14 1020.8 1001.8 +23.2
06 19.09 штиль 0 9000 м дымка 3 балла +13.3 +11.7 90 +13 +14 1021.0 1002.1 +9.1
09 19.09 ЮЗ 4 10 км 3 балла +23.1 +13.3 54 +26 +30 жарко 1020.0 1001.8
12 19.09 ЮЗ 4 10 км ясно +26.3 +13.1 44 +28 +32 жарко 1019.0 1001.0
15 19.09 ЮЗ 3 10 км ясно +25.3 +13.2 47 +27 +28 жарко 1018.0 999.9
18 19.09 ЮЗ 2 10 км 3 балла +19.6 +14.2 71 +22 +22 комфорт 1019.0 1000.6 +26.8

 

Местоположение метеостанции Ганцевичи (Брестская область, Беларусь): широта 52.75 долгота 26.44 высота над уровнем моря 157 м.

В архиве по умолчанию представлена погода в Ганцевичах за последнюю неделю. Архивные данные за месяц целиком и за предыдущие месяцы, начиная с января 2011 года, Вы можете получить, выбрав интересующий диапазон дат из раскрывающегося списка и нажав кнопку "Ввод!".


*Определитесь, кто Вы:
робот инопланетянин человек

Внимание! Время в таблицах - всемирное. Для получения местного времени необходимо прибавить поправку, которая в Ганцевичах равна 3 ч.

Смотрите также архив погоды в соседних городах и на ближайших метеорологических станциях:

Погода в Барановичах (Брестская область, Беларусь) (53 км)
Погода в Полесской (Брестская область, Беларусь) (53 км)
Погода в Ивацевичах (Брестская область, Беларусь) (73 км)
Погода в Пинске (Брестская область, Беларусь) (75 км)
Погода в Слуцке (Минская область, Беларусь) (81 км)
Погода в Столбцах (Минская область, Беларусь) (83 км)
Погода в Новогрудке (Гродненская область, Беларусь) (102 км)
Погода в Дрогичине (Брестская область, Беларусь) (109 км)
Погода в Житковичах (Гомельская область, Беларусь) (113 км)
Погода в Пружанах (Брестская область, Беларусь) (133 км)

Пояснения к столбцам:

Ветер - указаны скорость ветра в м/с - средняя за 10 мин, порывы в срок и между сроками (в фигурных скобках) и направление, откуда дует ветер: С - северный, СВ - северо-восточный, В - восточный, ЮВ - юго-восточный, Ю - южный, ЮЗ - юго-западный, З - западный, СЗ - северо-западный.
Видимость - горизонтальная дальность видимости в метрах или километрах. При видимости от 1 до 10 км при отсутствии осадков обычно наблюдается дымка, при ухудшении видимости до 1 км и менее - туман. В сухую погоду видимость может ухудшаться дымом, пылью или мглою.
Явления - указаны атмосферные явления, наблюдавшиеся в срок или в последний час перед сроком; фигурными скобками обозначены явления, наблюдавшиеся между сроками (за 1-3 часа до срока); квадратными скобками обозначены град или гололедные отложения с указанием их диаметра в мм.
Облачность - указаны через наклонную черту общая и нижняя облачность в баллах и высота нижней границы облаков в метрах; квадратными скобками обозначены формы облаков: Ci - перистые, Cs - перисто-слоистые, Cc - перисто-кучевые, Ac - высококучевые, As - высокослоистые, Sc - слоисто-кучевые, Ns - слоисто-дождевые, Cu - кучевые, Cb - кучево-дождевые. Подробнее классификацию облаков см. в Атласе облаков (PDF).
T - Температура воздуха - температура, измеренная на высоте 2 м над землей.
Td - Температура точки росы - температура, при понижении до которой содержащийся в воздухе водяной пар достигнет насыщения.
f - Относительная влажность воздуха - влажноcть воздуха, измеренная на высоте 2 м над землей.
Te - Эффективная температура - температура, которую ощущает одетый по сезону человек в тени. Характеристика душности погоды. При расчете учитывается влияние влажности воздуха и скорости ветра на теплоощущения человека.
Tes - Эффективная температура на солнце - температура, которую ощущает человек, с поправкой на солнечный нагрев. Характеристика знойности погоды. Зависит от высоты солнца над горизонтом, облачности и скорости ветра. Ночью, в пасмурную погоду, а также при ветре 12 м/с и более поправка равна нулю.
P - Атмосферное давление - приведенное к уровню моря атмосферное давление.
Po - Атмосферное давление - измеренное на уровне метеостанции атмосферное давление.
Tmin - Минимальная температура - минимум температуры воздуха на высоте 2 м над землей.
Tmax - Максимальная температура - максимум температуры воздуха на высоте 2 м над землей.
R - Количество осадков - Количество выпавших осадков за период времени, мм. При наведении курсора мыши на число - период времени, за который выпало указанное количество осадков.
R24 - Количество осадков - Количество выпавших осадков за 24 часа, мм.
S - Снежный покров - Высота снежного покрова, см. При наведении курсора мыши на число - состояние снежного покрова и степень покрытия местности в баллах.